Tracking 19638 objects as of 19-Apr-2019
HD Live streaming from Space Station
objects crossing your sky now

THORAD DELTA 1 DEB

Track THORAD DELTA 1 DEB now!
10-day predictions


NORAD ID: 8306
Int'l Code: 1974-089BP
Perigee: 1,417.1 km
Apogee: 1,529.8 km
Inclination: 101.9 °
Period: 115.2 minutes
Semi major axis: 7844 km
RCS: 0.0463 m2 (small)
Launch date: November 15, 1974
Source: United States (US)
Launch site: AIR FORCE WESTERN TEST RANGE (AFWTR)

Note: This is SATELLITE DEBRIS
aabbcc
Your satellite tracking list
Your tracking list is empty




NASA's NSSDC Master Catalog

Two Line Element Set (TLE):
1  8306U 74089BP  19108.27677601 +.00000101 +00000-0 +95514-3 0  9999
2  8306 101.9174 205.7311 0071796 069.8426 311.6215 12.49568250020122
Source of the keplerian elements: AFSPC